Gilze-Rijen, Netherlands

4:09 PM CEST on September 20, 2017 (GMT +0200)
Gilze-Rijen Air Base

Weather History for EHGR - November, 2013

Change the Weather History Date:

Saturday, November 30, 2013

  Actual Average Record
Temperature  
Mean Temperature 42 °F -  
Max Temperature 50 °F 41 °F 57 °F (2015)
Min Temperature 35 °F 32 °F 18 °F (2016)
Degree Days  
Heating Degree Days 22    
Moisture  
Dew Point 39 °F    
Average Humidity 92    
Maximum Humidity 100    
Minimum Humidity 66    
Precipitation  
Precipitation 0.00 in - - ()
Sea Level Pressure  
Sea Level Pressure 30.15 in    
Wind  
Wind Speed 6 mph ()    
Max Wind Speed 14 mph    
Max Gust Speed -    
Visibility 5.0 miles    
Events Fog , Rain    
Averages and records for this station are not official NWS values.
T = Trace of Precipitation, MM = Missing Value Source: Averaged Metar Reports

Daily Weather History Graph

Daily Weather History Graph

Search for Another Location

Airport or City:

Trip Planner

Search our weather history database for the weather conditions in past years. The results will help you decide how hot, cold, wet, or windy it might be!

Date:

Astronomy

Nov. 30, 2013 Rise Set
Actual Time 8:22 AM CET 4:35 PM CET
Civil Twilight 7:43 AM CET 5:14 PM CET
Nautical Twilight 7:01 AM CET 5:56 PM CET
Astronomical Twilight 6:21 AM CET 6:36 PM CET
Moon 4:58 AM CET (11/30) 3:04 PM CET (11/30)
Length of Visible Light 9h 30m
Length of Day
8h 12m
Waning Crescent, 9% of the Moon is Illuminated
Nov 30
Waning Crescent
Dec 3
New
Dec 9
First Quarter
Dec 17
Full
Dec 25
Last Quarter

Hourly Weather History & Observations

Time (CET) Temp. Windchill Dew Point Humidity Pressure Visibility Wind Dir Wind Speed Gust Speed Precip Events Conditions
12:25 AM 41.0 °F 36.4 °F 37.4 °F 87% 29.98 in 6.2 mi West 6.9 mph - N/A   Unknown
12:55 AM 41.0 °F 37.1 °F 35.6 °F 81% 29.95 in 6.2 mi West 5.8 mph - N/A   Partly Cloudy
1:25 AM 39.2 °F 34.2 °F 35.6 °F 87% 29.95 in 6.2 mi WSW 6.9 mph - N/A   Mostly Cloudy
1:35 AM 41.0 °F 36.4 °F 37.4 °F 87% 29.95 in 6.2 mi West 6.9 mph - N/A Rain Light Rain
1:55 AM 41.0 °F 33.5 °F 37.4 °F 87% 29.98 in 4.3 mi WNW 13.8 mph - N/A Rain Light Rain Showers
2:07 AM 41.0 °F 34.7 °F 37.4 °F 87% 29.95 in 6.2 mi West 10.4 mph - N/A   Mostly Cloudy
2:25 AM 39.2 °F 35.0 °F 37.4 °F 93% 29.95 in 6.2 mi West 5.8 mph - N/A Rain Light Rain
2:29 AM 39.2 °F 34.2 °F 37.4 °F 93% 29.95 in 6.2 mi West 6.9 mph - N/A Rain Light Rain
2:35 AM 41.0 °F 34.3 °F 37.4 °F 87% 29.95 in 4.3 mi West 11.5 mph - N/A Rain Rain Showers
2:40 AM 41.0 °F 33.9 °F 37.4 °F 87% 29.95 in 6.2 mi West 12.7 mph - N/A Rain Light Rain Showers
2:45 AM 39.2 °F 33.0 °F 37.4 °F 93% 29.95 in 6.2 mi WSW 9.2 mph - N/A   Mostly Cloudy
2:55 AM 39.2 °F 34.2 °F 39.2 °F 100% 29.95 in 6.2 mi WSW 6.9 mph - N/A   Mostly Cloudy
3:08 AM 41.0 °F 36.4 °F 39.2 °F 93% 29.95 in 6.2 mi WSW 6.9 mph - N/A   Mostly Cloudy
3:25 AM 41.0 °F 37.1 °F 39.2 °F 93% 29.95 in 6.2 mi WSW 5.8 mph - N/A   Overcast
3:30 AM 41.0 °F 37.1 °F 39.2 °F 93% 29.95 in 6.2 mi SW 5.8 mph - N/A   Mostly Cloudy
3:34 AM 41.0 °F 36.4 °F 39.2 °F 93% 29.95 in 6.2 mi SW 6.9 mph - N/A   Partly Cloudy
3:40 AM 41.0 °F 36.4 °F 39.2 °F 93% 29.95 in 6.2 mi WSW 6.9 mph - N/A Rain Light Rain
3:48 AM 41.0 °F 36.4 °F 39.2 °F 93% 29.95 in 6.2 mi WSW 6.9 mph - N/A Rain Light Rain
3:55 AM 41.0 °F 36.4 °F 39.2 °F 93% 29.95 in 6.2 mi WSW 6.9 mph - N/A   Partly Cloudy
4:25 AM 41.0 °F 37.1 °F 39.2 °F 93% 29.95 in 6.2 mi WSW 5.8 mph - N/A   Mostly Cloudy
4:29 AM 41.0 °F 36.4 °F 39.2 °F 93% 29.95 in 6.2 mi WSW 6.9 mph - N/A   Overcast
4:37 AM 41.0 °F 37.1 °F 39.2 °F 93% 29.95 in 6.2 mi West 5.8 mph - N/A   Mostly Cloudy
4:49 AM 41.0 °F 36.4 °F 39.2 °F 93% 29.95 in 6.2 mi WSW 6.9 mph - N/A   Mostly Cloudy
4:55 AM 41.0 °F 36.4 °F 39.2 °F 93% 29.95 in 6.2 mi WSW 6.9 mph - N/A Rain Light Rain
5:07 AM 41.0 °F 37.1 °F 39.2 °F 93% 29.95 in 6.2 mi WSW 5.8 mph - N/A   Overcast
5:25 AM 41.0 °F 37.1 °F 39.2 °F 93% 29.98 in 6.2 mi WSW 5.8 mph - N/A   Mostly Cloudy
5:33 AM 41.0 °F 38.0 °F 39.2 °F 93% 29.98 in 6.2 mi WSW 4.6 mph - N/A   Mostly Cloudy
5:43 AM 41.0 °F 38.0 °F 39.2 °F 93% 29.98 in 6.2 mi West 4.6 mph - N/A Rain Light Rain
5:55 AM 41.0 °F 36.4 °F 39.2 °F 93% 29.98 in 6.2 mi West 6.9 mph - N/A   Overcast
6:25 AM 39.2 °F 35.9 °F 39.2 °F 100% 30.01 in 6.2 mi West 4.6 mph - N/A   Partly Cloudy
6:45 AM 37.4 °F 32.8 °F 37.4 °F 100% 30.01 in 3.7 mi West 5.8 mph - N/A   Mostly Cloudy
6:47 AM 39.2 °F 35.0 °F 39.2 °F 100% 30.01 in 5.0 mi West 5.8 mph - N/A   Mostly Cloudy
6:55 AM 41.0 °F 37.1 °F 39.2 °F 93% 30.01 in 6.2 mi West 5.8 mph - N/A   Mostly Cloudy
7:06 AM 39.2 °F 34.2 °F 37.4 °F 93% 30.04 in 6.2 mi WNW 6.9 mph - N/A   Unknown
7:25 AM 39.2 °F 34.2 °F 37.4 °F 93% 30.04 in 6.2 mi WNW 6.9 mph - N/A   Mostly Cloudy
7:55 AM 37.4 °F 32.8 °F 37.4 °F 100% 30.04 in 6.2 mi NW 5.8 mph - N/A   Unknown
8:20 AM 39.2 °F 35.0 °F 37.4 °F 93% 30.06 in 4.3 mi WNW 5.8 mph - N/A   Partly Cloudy
8:25 AM 37.4 °F 32.8 °F 37.4 °F 100% 30.06 in - WNW 5.8 mph - N/A   Partly Cloudy
8:29 AM 39.2 °F 35.0 °F 37.4 °F 93% 30.06 in 1.9 mi WNW 5.8 mph - N/A   Scattered Clouds
8:31 AM 39.2 °F 35.0 °F 37.4 °F 93% 30.06 in - WNW 5.8 mph - N/A   Mostly Cloudy
8:34 AM 39.2 °F 34.2 °F 37.4 °F 93% 30.06 in 5.6 mi WNW 6.9 mph - N/A   Mostly Cloudy
8:47 AM 39.2 °F 34.2 °F 39.2 °F 100% 30.06 in 6.2 mi WNW 6.9 mph - N/A   Overcast
8:55 AM 41.0 °F 36.4 °F 39.2 °F 93% 30.06 in 6.2 mi WNW 6.9 mph - N/A   Overcast
9:25 AM 41.0 °F 36.4 °F 39.2 °F 93% 30.09 in 6.2 mi WNW 6.9 mph - N/A   Overcast
9:55 AM 42.8 °F 38.6 °F 41.0 °F 93% 30.09 in 6.2 mi WNW 6.9 mph - N/A   Mostly Cloudy
10:25 AM 44.6 °F 40.7 °F 41.0 °F 87% 30.12 in 6.2 mi NW 6.9 mph - N/A   Partly Cloudy
10:55 AM 46.4 °F 42.4 °F 41.0 °F 81% 30.15 in 6.2 mi NNW 8.1 mph - N/A   Overcast
11:25 AM 46.4 °F 42.4 °F 41.0 °F 81% 30.15 in 6.2 mi North 8.1 mph - N/A   Mostly Cloudy
11:55 AM 48.2 °F - 41.0 °F 76% 30.15 in 6.2 mi North 10.4 mph - N/A   Overcast
12:25 PM 48.2 °F - 41.0 °F 76% 30.15 in 6.2 mi North 8.1 mph - N/A   Partly Cloudy
12:55 PM 48.2 °F - 41.0 °F 76% 30.15 in 6.2 mi North 10.4 mph - N/A   Unknown
1:25 PM 50.0 °F - 39.2 °F 66% 30.18 in 6.2 mi North 11.5 mph - N/A   Unknown
1:55 PM 50.0 °F - 39.2 °F 66% 30.18 in 6.2 mi North 11.5 mph - N/A   Partly Cloudy
2:25 PM 50.0 °F - 39.2 °F 66% 30.18 in 6.2 mi North 10.4 mph - N/A   Mostly Cloudy
2:55 PM 48.2 °F - 39.2 °F 71% 30.21 in 6.2 mi North 9.2 mph - N/A   Overcast
3:25 PM 48.2 °F - 39.2 °F 71% 30.21 in 6.2 mi North 8.1 mph - N/A   Overcast
3:55 PM 48.2 °F - 41.0 °F 76% 30.24 in 6.2 mi NNW 8.1 mph - N/A   Mostly Cloudy
4:17 PM 46.4 °F 43.5 °F 41.0 °F 81% 30.24 in 6.2 mi NNW 5.8 mph - N/A   Overcast
4:25 PM 46.4 °F 43.5 °F 41.0 °F 81% 30.24 in 6.2 mi NNW 5.8 mph - N/A   Overcast
4:51 PM 46.4 °F 43.5 °F 42.8 °F 87% 30.24 in 6.2 mi NNE 5.8 mph - N/A   Mostly Cloudy
4:55 PM 46.4 °F 44.3 °F 41.0 °F 81% 30.24 in 6.2 mi North 4.6 mph - N/A   Overcast
5:25 PM 44.6 °F 43.1 °F 41.0 °F 87% 30.27 in 6.2 mi NW 3.5 mph - N/A   Overcast
5:55 PM 42.8 °F 40.1 °F 41.0 °F 93% 30.27 in 6.2 mi WNW 4.6 mph - N/A   Overcast
6:25 PM 41.0 °F - 39.2 °F 93% 30.27 in 6.2 mi West 2.3 mph - N/A   Mostly Cloudy
6:37 PM 39.2 °F - 37.4 °F 93% 30.27 in 4.3 mi West 2.3 mph - N/A   Mist
6:44 PM 37.4 °F - 37.4 °F 100% 30.27 in 0.4 mi West 2.3 mph - N/A Fog Fog
6:55 PM 37.4 °F 34.9 °F 35.6 °F 93% 30.30 in 6.2 mi West 3.5 mph - N/A   Partly Cloudy
7:05 PM 37.4 °F - 37.4 °F 100% 30.30 in 1.8 mi West 2.3 mph - N/A   Mist
7:09 PM 37.4 °F - 37.4 °F 100% 30.30 in 3.1 mi WNW 2.3 mph - N/A   Mist
7:18 PM 37.4 °F 33.8 °F 37.4 °F 100% 30.30 in - West 4.6 mph - N/A   Mist
7:25 PM 37.4 °F 33.8 °F 37.4 °F 100% 30.30 in - West 4.6 mph - N/A Fog Fog
7:36 PM 39.2 °F 35.9 °F 37.4 °F 93% 30.30 in 0.5 mi West 4.6 mph - N/A Fog Fog
7:45 PM 35.6 °F 31.7 °F 35.6 °F 100% 30.30 in 1.1 mi West 4.6 mph - N/A   Mist
7:55 PM 37.4 °F 33.8 °F 37.4 °F 100% 30.30 in 0.4 mi West 4.6 mph - N/A Fog Fog
8:17 PM 39.2 °F 35.9 °F 39.2 °F 100% 30.33 in 0.5 mi West 4.6 mph - N/A Fog Fog
8:25 PM 37.4 °F 32.8 °F 37.4 °F 100% 30.33 in 0.5 mi West 5.8 mph - N/A Fog Fog
8:31 PM 39.2 °F 35.0 °F 37.4 °F 93% 30.33 in 1.7 mi West 5.8 mph - N/A   Scattered Clouds
8:36 PM 39.2 °F 35.0 °F 39.2 °F 100% 30.33 in 0.6 mi West 5.8 mph - N/A Fog Fog
8:46 PM 37.4 °F 33.8 °F 37.4 °F 100% 30.33 in 1.2 mi WNW 4.6 mph - N/A   Overcast
8:55 PM 39.2 °F 35.0 °F 39.2 °F 100% 30.33 in - West 5.8 mph - N/A   Overcast
9:05 PM 41.0 °F 38.0 °F 39.2 °F 93% 30.33 in 3.7 mi West 4.6 mph - N/A   Overcast
9:14 PM 41.0 °F 38.0 °F 39.2 °F 93% 30.33 in 5.0 mi West 4.6 mph - N/A   Overcast
9:25 PM 39.2 °F 35.9 °F 37.4 °F 93% 30.33 in 6.2 mi WNW 4.6 mph - N/A   Overcast
9:31 PM 39.2 °F 35.9 °F 37.4 °F 93% 30.33 in 4.3 mi WNW 4.6 mph - N/A   Overcast
9:35 PM 39.2 °F 35.0 °F 39.2 °F 100% 30.33 in 0.6 mi WNW 5.8 mph - N/A   Mostly Cloudy
9:44 PM 39.2 °F 35.0 °F 39.2 °F 100% 30.33 in 1.7 mi WNW 5.8 mph - N/A   Overcast
9:55 PM 41.0 °F 37.1 °F 39.2 °F 93% 30.33 in - WNW 5.8 mph - N/A   Overcast
9:59 PM 39.2 °F 35.0 °F 39.2 °F 100% 30.33 in 5.6 mi WNW 5.8 mph - N/A   Overcast
10:09 PM 39.2 °F 35.0 °F 39.2 °F 100% 30.33 in 6.2 mi NW 5.8 mph - N/A   Overcast
10:20 PM 39.2 °F 35.0 °F 39.2 °F 100% 30.33 in 6.2 mi NW 5.8 mph - N/A   Mostly Cloudy
10:25 PM 39.2 °F 35.0 °F 37.4 °F 93% 30.33 in 6.2 mi NW 5.8 mph - N/A   Mostly Cloudy
10:55 PM 39.2 °F 35.9 °F 39.2 °F 100% 30.33 in 6.2 mi NW 4.6 mph - N/A   Overcast
10:59 PM 39.2 °F 35.9 °F 39.2 °F 100% 30.33 in 3.7 mi NW 4.6 mph - N/A   Mostly Cloudy
11:11 PM 41.0 °F 39.0 °F 39.2 °F 93% 30.36 in 0.7 mi WNW 3.5 mph - N/A   Mostly Cloudy
11:17 PM 39.2 °F 37.0 °F 39.2 °F 100% 30.36 in 1.6 mi WNW 3.5 mph - N/A   Mostly Cloudy
11:25 PM 39.2 °F 37.0 °F 39.2 °F 100% 30.36 in - WNW 3.5 mph - N/A   Overcast
11:38 PM 39.2 °F - 39.2 °F 100% 30.36 in 2.5 mi West 2.3 mph - N/A   Overcast
11:40 PM 41.0 °F 39.0 °F 41.0 °F 100% 30.36 in 2.2 mi West 3.5 mph - N/A   Overcast
11:55 PM 41.0 °F 38.0 °F 41.0 °F 100% 30.36 in 3.1 mi WNW 4.6 mph - N/A   Overcast